GHRBD EGCB-EGCB

Flight info

Callsign GHRBD
Flight time 0h 37m
Altitude 2000
Route VFR
Aircraft R66/L-SDGRY/L

Departure

Time 2026-04-18 20:55
Airport Manchester Barton Aerodrome (EGCB)

Arrival

Time 2026-04-18 21:33
Airport Manchester Barton Aerodrome (EGCB)
Time Latitude Longitude Altitude Speed Heading
2026-04-18 20:47 53.47334 -2.38702 84 ft 0 kts 178°
2026-04-18 20:55 53.47336 -2.38700 91 ft 5 kts 346°
2026-04-18 20:55 53.47503 -2.38851 213 ft 43 kts 334°
2026-04-18 20:55 53.47896 -2.39114 477 ft 74 kts 339°
2026-04-18 20:55 53.48235 -2.39330 741 ft 81 kts 336°
2026-04-18 20:56 53.48777 -2.39713 1070 ft 88 kts 334°
2026-04-18 20:56 53.49346 -2.40144 1402 ft 90 kts 333°
2026-04-18 20:56 53.49879 -2.40646 1826 ft 87 kts 325°
2026-04-18 20:56 53.50344 -2.41245 2254 ft 82 kts 321°
2026-04-18 20:57 53.50835 -2.41935 2304 ft 106 kts 319°
2026-04-18 20:57 53.51422 -2.42760 2244 ft 105 kts 316°
2026-04-18 20:57 53.51937 -2.43455 2270 ft 88 kts 322°
2026-04-18 20:57 53.52440 -2.43973 2276 ft 87 kts 327°
2026-04-18 20:58 53.52984 -2.44463 2277 ft 88 kts 328°
2026-04-18 20:58 53.53523 -2.44933 2275 ft 89 kts 328°
2026-04-18 20:58 53.54073 -2.45408 2274 ft 89 kts 328°
2026-04-18 20:58 53.54628 -2.45887 2275 ft 90 kts 329°
2026-04-18 20:59 53.55181 -2.46373 2276 ft 90 kts 329°
2026-04-18 20:59 53.55736 -2.46866 2276 ft 91 kts 328°
2026-04-18 20:59 53.56298 -2.47373 2274 ft 92 kts 328°
2026-04-18 20:59 53.56859 -2.47877 2275 ft 91 kts 328°
2026-04-18 21:00 53.57420 -2.48380 2276 ft 91 kts 328°
2026-04-18 21:00 53.57768 -2.49222 2278 ft 93 kts 285°
2026-04-18 21:00 53.57744 -2.50338 2280 ft 98 kts 269°
2026-04-18 21:00 53.57610 -2.51472 2280 ft 99 kts 265°
2026-04-18 21:01 53.57453 -2.52605 2280 ft 99 kts 265°
2026-04-18 21:01 53.57297 -2.53736 2280 ft 100 kts 266°
2026-04-18 21:01 53.57145 -2.54880 2279 ft 100 kts 266°
2026-04-18 21:01 53.57000 -2.56028 2277 ft 100 kts 266°
2026-04-18 21:02 53.56860 -2.57173 2279 ft 99 kts 267°
2026-04-18 21:02 53.57127 -2.59067 2266 ft 89 kts 338°
2026-04-18 21:02 53.57730 -2.58744 2284 ft 105 kts 33°
2026-04-18 21:03 53.57931 -2.57479 2281 ft 125 kts 89°
2026-04-18 21:03 53.57464 -2.56220 2279 ft 133 kts 143°
2026-04-18 21:03 53.56604 -2.55762 2278 ft 129 kts 181°
2026-04-18 21:03 53.55749 -2.55920 2147 ft 118 kts 200°
2026-04-18 21:04 53.54989 -2.56320 1925 ft 112 kts 208°
2026-04-18 21:04 53.54265 -2.56794 1679 ft 111 kts 208°
2026-04-18 21:04 53.53581 -2.57302 1625 ft 106 kts 210°
2026-04-18 21:04 53.52846 -2.57544 1634 ft 110 kts 187°
2026-04-18 21:05 53.52078 -2.57498 1637 ft 111 kts 180°
2026-04-18 21:05 53.51310 -2.57382 1640 ft 111 kts 180°
2026-04-18 21:05 53.50535 -2.57288 1640 ft 112 kts 182°
2026-04-18 21:05 53.49759 -2.57242 1640 ft 112 kts 184°
2026-04-18 21:06 53.48983 -2.57207 1640 ft 112 kts 184°
2026-04-18 21:06 53.48207 -2.57177 1640 ft 111 kts 184°
2026-04-18 21:06 53.47435 -2.57149 1640 ft 111 kts 184°
2026-04-18 21:06 53.46665 -2.57118 1640 ft 111 kts 184°
2026-04-18 21:07 53.45907 -2.57084 1638 ft 110 kts 183°
2026-04-18 21:07 53.45144 -2.57052 1639 ft 109 kts 183°
2026-04-18 21:07 53.44389 -2.57023 1639 ft 108 kts 184°
2026-04-18 21:07 53.43638 -2.56987 1654 ft 108 kts 183°
2026-04-18 21:08 53.42880 -2.56948 1653 ft 110 kts 183°
2026-04-18 21:08 53.42113 -2.56904 1655 ft 111 kts 183°
2026-04-18 21:08 53.41342 -2.56863 1654 ft 111 kts 183°
2026-04-18 21:08 53.40551 -2.56842 1655 ft 117 kts 184°
2026-04-18 21:09 53.39727 -2.56819 1657 ft 120 kts 183°
2026-04-18 21:09 53.38887 -2.56791 1657 ft 122 kts 183°
2026-04-18 21:09 53.38032 -2.56754 1656 ft 124 kts 182°
2026-04-18 21:09 53.37169 -2.56712 1657 ft 125 kts 182°
2026-04-18 21:10 53.36297 -2.56668 1656 ft 126 kts 182°
2026-04-18 21:10 53.35426 -2.56629 1655 ft 124 kts 182°
2026-04-18 21:10 53.34565 -2.56597 1656 ft 124 kts 182°
2026-04-18 21:10 53.33704 -2.56569 1655 ft 123 kts 182°
2026-04-18 21:11 53.32852 -2.56541 1657 ft 122 kts 183°
2026-04-18 21:11 53.31995 -2.56508 1656 ft 124 kts 182°
2026-04-18 21:11 53.31134 -2.56467 1652 ft 124 kts 182°
2026-04-18 21:11 53.30271 -2.56419 1655 ft 125 kts 182°
2026-04-18 21:12 53.29403 -2.56369 1655 ft 125 kts 182°
2026-04-18 21:12 53.28536 -2.56320 1656 ft 125 kts 182°
2026-04-18 21:12 53.27669 -2.56257 1657 ft 125 kts 178°
2026-04-18 21:12 53.26808 -2.55995 1663 ft 127 kts 168°
2026-04-18 21:13 53.25966 -2.55534 1663 ft 128 kts 161°
2026-04-18 21:13 53.25138 -2.54981 1659 ft 128 kts 159°
2026-04-18 21:13 53.24318 -2.54419 1657 ft 127 kts 159°
2026-04-18 21:13 53.23502 -2.53877 1655 ft 125 kts 159°
2026-04-18 21:14 53.22691 -2.53358 1656 ft 126 kts 160°
2026-04-18 21:14 53.21868 -2.52858 1714 ft 124 kts 162°
2026-04-18 21:14 53.21060 -2.52386 1908 ft 122 kts 162°
2026-04-18 21:14 53.20255 -2.51903 1997 ft 129 kts 161°
2026-04-18 21:15 53.19379 -2.51359 1981 ft 138 kts 160°
2026-04-18 21:15 53.18494 -2.50723 1981 ft 139 kts 143°
2026-04-18 21:15 53.17976 -2.49472 1984 ft 128 kts 99°
2026-04-18 21:15 53.17840 -2.48045 1983 ft 123 kts 85°
2026-04-18 21:16 53.17808 -2.46633 1983 ft 121 kts 81°
2026-04-18 21:16 53.17788 -2.45228 1983 ft 121 kts 82°
2026-04-18 21:16 53.17763 -2.43824 1981 ft 121 kts 82°
2026-04-18 21:16 53.17727 -2.42435 1982 ft 122 kts 83°
2026-04-18 21:17 53.17682 -2.41021 1982 ft 122 kts 83°
2026-04-18 21:17 53.17632 -2.39607 1981 ft 122 kts 84°
2026-04-18 21:17 53.17580 -2.38195 1983 ft 122 kts 84°
2026-04-18 21:17 53.17526 -2.36783 1983 ft 122 kts 84°
2026-04-18 21:18 53.17469 -2.35372 1980 ft 122 kts 84°
2026-04-18 21:18 53.17408 -2.33957 1982 ft 123 kts 84°
2026-04-18 21:18 53.17344 -2.32537 1982 ft 123 kts 85°
2026-04-18 21:18 53.17280 -2.31118 1983 ft 123 kts 85°
2026-04-18 21:19 53.17218 -2.29703 1983 ft 122 kts 85°
2026-04-18 21:19 53.17159 -2.28289 1983 ft 122 kts 85°
2026-04-18 21:19 53.17320 -2.26974 1982 ft 113 kts 53°
2026-04-18 21:19 53.17716 -2.25872 1983 ft 110 kts 44°
2026-04-18 21:20 53.18164 -2.24841 1988 ft 110 kts 41°
2026-04-18 21:20 53.18617 -2.23820 1981 ft 109 kts 41°
2026-04-18 21:20 53.19066 -2.22793 1982 ft 110 kts 42°
2026-04-18 21:20 53.19511 -2.21750 1984 ft 111 kts 43°
2026-04-18 21:21 53.19950 -2.20699 1983 ft 110 kts 43°
2026-04-18 21:21 53.20384 -2.19651 1978 ft 110 kts 43°
2026-04-18 21:21 53.20816 -2.18600 1983 ft 109 kts 44°
2026-04-18 21:21 53.21244 -2.17553 1985 ft 109 kts 44°
2026-04-18 21:22 53.21675 -2.16499 1982 ft 110 kts 44°
2026-04-18 21:22 53.22105 -2.15441 1982 ft 110 kts 44°
2026-04-18 21:22 53.22537 -2.14374 1981 ft 111 kts 44°
2026-04-18 21:22 53.22979 -2.13322 1982 ft 108 kts 35°
2026-04-18 21:23 53.23607 -2.12946 1990 ft 94 kts 346°
2026-04-18 21:23 53.24194 -2.13361 1979 ft 92 kts 325°
2026-04-18 21:23 53.24727 -2.13940 1979 ft 92 kts 325°
2026-04-18 21:23 53.25286 -2.14451 1989 ft 92 kts 330°
2026-04-18 21:24 53.25863 -2.14902 1981 ft 88 kts 330°
2026-04-18 21:24 53.26424 -2.15312 1985 ft 86 kts 331°
2026-04-18 21:24 53.26968 -2.15692 1989 ft 86 kts 334°
2026-04-18 21:24 53.27544 -2.16067 1989 ft 91 kts 334°
2026-04-18 21:25 53.28138 -2.16466 1988 ft 92 kts 333°
2026-04-18 21:25 53.28698 -2.16873 1983 ft 85 kts 330°
2026-04-18 21:25 53.29214 -2.17315 1990 ft 85 kts 329°
2026-04-18 21:25 53.29743 -2.17791 1991 ft 87 kts 328°
2026-04-18 21:26 53.30286 -2.18268 1987 ft 90 kts 328°
2026-04-18 21:26 53.30827 -2.18758 1990 ft 89 kts 328°
2026-04-18 21:26 53.31378 -2.19252 1853 ft 89 kts 324°
2026-04-18 21:26 53.31883 -2.19791 1423 ft 79 kts 323°
2026-04-18 21:27 53.32216 -2.20094 1539 ft 45 kts 335°
2026-04-18 21:27 53.32630 -2.20380 1534 ft 80 kts 332°
2026-04-18 21:27 53.33174 -2.20815 1522 ft 91 kts 329°
2026-04-18 21:27 53.33752 -2.21311 1520 ft 95 kts 328°
2026-04-18 21:28 53.34342 -2.21830 1520 ft 96 kts 326°
2026-04-18 21:28 53.34857 -2.22527 1521 ft 95 kts 314°
2026-04-18 21:28 53.35314 -2.23330 1520 ft 95 kts 311°
2026-04-18 21:28 53.35764 -2.24144 1521 ft 96 kts 311°
2026-04-18 21:29 53.36217 -2.24960 1520 ft 96 kts 311°
2026-04-18 21:29 53.36674 -2.25775 1520 ft 96 kts 312°
2026-04-18 21:29 53.37131 -2.26588 1519 ft 94 kts 311°
2026-04-18 21:29 53.37585 -2.27392 1521 ft 96 kts 313°
2026-04-18 21:30 53.38058 -2.28183 1521 ft 97 kts 316°
2026-04-18 21:30 53.38562 -2.28924 1521 ft 97 kts 317°
2026-04-18 21:30 53.39077 -2.29651 1521 ft 97 kts 318°
2026-04-18 21:30 53.39594 -2.30375 1520 ft 97 kts 318°
2026-04-18 21:31 53.40109 -2.31094 1520 ft 96 kts 318°
2026-04-18 21:31 53.40621 -2.31812 1521 ft 96 kts 318°
2026-04-18 21:31 53.41131 -2.32529 1521 ft 96 kts 318°
2026-04-18 21:31 53.41609 -2.33227 1514 ft 83 kts 316°
2026-04-18 21:32 53.42059 -2.33800 1518 ft 79 kts 321°
2026-04-18 21:32 53.42507 -2.34316 1524 ft 80 kts 323°
2026-04-18 21:32 53.42955 -2.34826 1489 ft 72 kts 321°
2026-04-18 21:32 53.43363 -2.35210 1331 ft 65 kts 328°
2026-04-18 21:33 53.43788 -2.35522 1020 ft 69 kts 331°
2026-04-18 21:33 53.44160 -2.35776 1024 ft 46 kts 334°
2026-04-18 21:33 53.44404 -2.35923 1029 ft 31 kts 335°
2026-04-18 21:33 53.44601 -2.36081 1125 ft 33 kts 335°
2026-04-18 21:34 53.44830 -2.36246 1362 ft 39 kts 335°
2026-04-18 21:34 53.45075 -2.36466 1326 ft 40 kts 319°
2026-04-18 21:34 53.45320 -2.36687 1243 ft 41 kts 328°
2026-04-18 21:34 53.45583 -2.36930 1182 ft 50 kts 327°
2026-04-18 21:35 53.45904 -2.37261 1125 ft 59 kts 324°
2026-04-18 21:35 53.46320 -2.37636 872 ft 77 kts 335°
2026-04-18 21:35 53.46780 -2.37985 577 ft 61 kts 311°
2026-04-18 21:35 53.47046 -2.38354 230 ft 40 kts 315°
2026-04-18 21:36 53.47194 -2.38526 118 ft 17 kts
2026-04-18 21:36 53.47296 -2.38624 96 ft 12 kts 317°
2026-04-18 21:36 53.47327 -2.38686 74 ft 0 kts 310°